RSD955 UIII-UIAR

Flight info

Callsign RSD955
Flight time 1h 24m
Altitude 37000
Route KA4D KA W225 GARAK W276 IDRAN
Aircraft A319/M-SDE1E2E3FGHIJ1M1RWXY/LB1

Departure

Time 2026-04-20 18:31
Airport Irkutsk International Airport (UIII)

Arrival

Time 2026-04-20 19:55
Airport Chara Airport (UIAR)
Time Latitude Longitude Altitude Speed Heading
2026-04-20 18:06 52.27135 104.35920 1629 ft 0 kts 355°
2026-04-20 18:27 52.27137 104.35919 1629 ft 1 kts 355°
2026-04-20 18:27 52.27157 104.35917 1629 ft 5 kts 358°
2026-04-20 18:27 52.27178 104.35987 1629 ft 10 kts 85°
2026-04-20 18:27 52.27182 104.36127 1629 ft 14 kts 88°
2026-04-20 18:28 52.27177 104.36302 1629 ft 17 kts 104°
2026-04-20 18:28 52.27135 104.36486 1629 ft 18 kts 110°
2026-04-20 18:28 52.27088 104.36686 1629 ft 20 kts 110°
2026-04-20 18:28 52.27040 104.36905 1631 ft 21 kts 109°
2026-04-20 18:29 52.26993 104.37110 1632 ft 16 kts 110°
2026-04-20 18:29 52.27013 104.37249 1629 ft 14 kts 52°
2026-04-20 18:29 52.27078 104.37397 1629 ft 18 kts 54°
2026-04-20 18:29 52.27143 104.37543 1631 ft 11 kts 54°
2026-04-20 18:30 52.27195 104.37612 1631 ft 9 kts 21°
2026-04-20 18:30 52.27192 104.37688 1632 ft 9 kts 116°
2026-04-20 18:30 52.27096 104.38033 1637 ft 77 kts 114°
2026-04-20 18:30 52.26770 104.39266 1659 ft 155 kts 114°
2026-04-20 18:31 52.26338 104.40892 2471 ft 154 kts 112°
2026-04-20 18:31 52.25904 104.42586 3210 ft 173 kts 109°
2026-04-20 18:31 52.25879 104.44617 3728 ft 193 kts 66°
2026-04-20 18:31 52.26752 104.46372 4265 ft 213 kts 31°
2026-04-20 18:32 52.28079 104.47733 5034 ft 237 kts 28°
2026-04-20 18:32 52.29515 104.49212 6087 ft 249 kts 27°
2026-04-20 18:32 52.30991 104.50757 7231 ft 256 kts 27°
2026-04-20 18:32 52.32516 104.52369 8283 ft 266 kts 27°
2026-04-20 18:33 52.34098 104.54050 9330 ft 276 kts 28°
2026-04-20 18:33 52.35735 104.55797 10350 ft 287 kts 27°
2026-04-20 18:33 52.37478 104.57650 10943 ft 311 kts 27°
2026-04-20 18:33 52.39369 104.59653 11445 ft 336 kts 26°
2026-04-20 18:34 52.41376 104.61788 12135 ft 350 kts 26°
2026-04-20 18:34 52.43436 104.64000 13067 ft 357 kts 26°
2026-04-20 18:34 52.45525 104.66255 14019 ft 363 kts 25°
2026-04-20 18:34 52.47653 104.68559 14873 ft 368 kts 25°
2026-04-20 18:35 52.49805 104.70891 15726 ft 373 kts 25°
2026-04-20 18:35 52.51976 104.73240 16605 ft 377 kts 25°
2026-04-20 18:35 52.54182 104.75621 17477 ft 381 kts 24°
2026-04-20 18:35 52.56411 104.78020 18342 ft 385 kts 24°
2026-04-20 18:36 52.58670 104.80456 19112 ft 389 kts 24°
2026-04-20 18:36 52.60943 104.82915 19880 ft 393 kts 24°
2026-04-20 18:36 52.63241 104.85403 20639 ft 396 kts 24°
2026-04-20 18:36 52.65553 104.87913 21360 ft 400 kts 24°
2026-04-20 18:37 52.67881 104.90448 22078 ft 403 kts 24°
2026-04-20 18:37 52.70231 104.93007 22779 ft 407 kts 24°
2026-04-20 18:37 52.72578 104.95564 23457 ft 410 kts 24°
2026-04-20 18:37 52.74970 104.98171 24067 ft 414 kts 23°
2026-04-20 18:38 52.77382 105.00804 24618 ft 417 kts 23°
2026-04-20 18:38 52.79807 105.03456 25163 ft 421 kts 23°
2026-04-20 18:38 52.82266 105.06153 25697 ft 425 kts 23°
2026-04-20 18:38 52.84735 105.08864 26240 ft 428 kts 23°
2026-04-20 18:39 52.87260 105.11638 26758 ft 431 kts 23°
2026-04-20 18:39 52.89734 105.14361 27273 ft 435 kts 23°
2026-04-20 18:39 52.92261 105.17146 27795 ft 438 kts 23°
2026-04-20 18:39 52.94805 105.19952 28291 ft 441 kts 23°
2026-04-20 18:40 52.97289 105.23055 28770 ft 454 kts 30°
2026-04-20 18:40 52.99692 105.26469 29248 ft 457 kts 30°
2026-04-20 18:40 53.02115 105.29920 29717 ft 460 kts 30°
2026-04-20 18:40 53.04550 105.33395 30191 ft 463 kts 30°
2026-04-20 18:41 53.06996 105.36887 30633 ft 464 kts 31°
2026-04-20 18:41 53.09443 105.40388 31107 ft 464 kts 31°
2026-04-20 18:41 53.11888 105.43893 31564 ft 464 kts 32°
2026-04-20 18:41 53.14335 105.47407 32021 ft 464 kts 32°
2026-04-20 18:42 53.16782 105.50927 32491 ft 465 kts 32°
2026-04-20 18:42 53.19230 105.54453 32957 ft 465 kts 33°
2026-04-20 18:42 53.21682 105.57995 33395 ft 466 kts 33°
2026-04-20 18:42 53.24134 105.61539 33845 ft 467 kts 34°
2026-04-20 18:43 53.26593 105.65089 34290 ft 467 kts 34°
2026-04-20 18:43 53.29047 105.68634 34662 ft 468 kts 34°
2026-04-20 18:43 53.31510 105.72204 35055 ft 468 kts 34°
2026-04-20 18:43 53.33964 105.75779 35440 ft 468 kts 35°
2026-04-20 18:44 53.36423 105.79369 35801 ft 468 kts 35°
2026-04-20 18:44 53.38874 105.82945 36153 ft 468 kts 35°
2026-04-20 18:44 53.41337 105.86536 36505 ft 468 kts 35°
2026-04-20 18:44 53.43764 105.90073 36855 ft 469 kts 35°
2026-04-20 18:45 53.46220 105.93665 37200 ft 469 kts 36°
2026-04-20 18:45 53.48679 105.97282 37534 ft 469 kts 36°
2026-04-20 18:45 53.51139 106.00909 37871 ft 469 kts 36°
2026-04-20 18:45 53.53598 106.04529 38201 ft 470 kts 36°
2026-04-20 18:46 53.56056 106.08147 38525 ft 470 kts 36°
2026-04-20 18:46 53.57685 106.10546 38738 ft 470 kts 36°
2026-04-20 18:46 53.60144 106.14173 39021 ft 470 kts 36°
2026-04-20 18:46 53.62606 106.17811 39176 ft 471 kts 37°
2026-04-20 18:47 53.67527 106.25106 39235 ft 471 kts 37°
2026-04-20 18:47 53.72429 106.32411 39240 ft 470 kts 37°
2026-04-20 18:48 53.77342 106.39754 39239 ft 470 kts 37°
2026-04-20 18:48 53.82240 106.47091 39239 ft 470 kts 37°
2026-04-20 18:49 53.87099 106.54394 39243 ft 470 kts 37°
2026-04-20 18:49 53.92018 106.61814 39247 ft 470 kts 37°
2026-04-20 18:50 53.96906 106.69216 39255 ft 471 kts 38°
2026-04-20 18:50 54.01797 106.76638 39257 ft 471 kts 38°
2026-04-20 18:51 54.06656 106.84036 39249 ft 472 kts 38°
2026-04-20 18:51 54.11545 106.91502 39247 ft 472 kts 38°
2026-04-20 18:52 54.16430 106.98998 39261 ft 473 kts 38°
2026-04-20 18:52 54.21349 107.06580 39260 ft 473 kts 38°
2026-04-20 18:53 54.26235 107.14123 39253 ft 473 kts 38°
2026-04-20 18:53 54.31121 107.21668 39251 ft 473 kts 38°
2026-04-20 18:54 54.35998 107.29243 39251 ft 473 kts 38°
2026-04-20 18:54 54.40835 107.36803 39252 ft 473 kts 39°
2026-04-20 18:55 54.45696 107.44428 39249 ft 473 kts 39°
2026-04-20 18:55 54.50556 107.52048 39243 ft 473 kts 39°
2026-04-20 18:56 54.55414 107.59679 39235 ft 472 kts 39°
2026-04-20 18:56 54.60264 107.67343 39237 ft 472 kts 39°
2026-04-20 18:57 54.65104 107.75012 39232 ft 472 kts 39°
2026-04-20 18:57 54.69938 107.82707 39232 ft 472 kts 40°
2026-04-20 18:58 54.74761 107.90413 39228 ft 472 kts 40°
2026-04-20 18:58 54.79597 107.98154 39219 ft 472 kts 40°
2026-04-20 18:59 54.84413 108.05905 39215 ft 472 kts 40°
2026-04-20 18:59 54.89233 108.13675 39215 ft 472 kts 40°
2026-04-20 19:00 54.94022 108.21415 39212 ft 472 kts 40°
2026-04-20 19:00 54.98828 108.29205 39209 ft 472 kts 40°
2026-04-20 19:01 55.03620 108.37015 39204 ft 471 kts 41°
2026-04-20 19:01 55.08410 108.44852 39195 ft 471 kts 41°
2026-04-20 19:02 55.13193 108.52679 39191 ft 471 kts 41°
2026-04-20 19:02 55.17975 108.60541 39186 ft 471 kts 41°
2026-04-20 19:03 55.22719 108.68386 39180 ft 471 kts 41°
2026-04-20 19:03 55.27494 108.76298 39167 ft 471 kts 41°
2026-04-20 19:04 55.32259 108.84222 39167 ft 472 kts 41°
2026-04-20 19:04 55.37018 108.92163 39157 ft 472 kts 41°
2026-04-20 19:05 55.41779 109.00122 39155 ft 472 kts 41°
2026-04-20 19:05 55.46530 109.08112 39156 ft 472 kts 42°
2026-04-20 19:06 55.51283 109.16133 39148 ft 472 kts 42°
2026-04-20 19:06 55.56026 109.24174 39143 ft 472 kts 42°
2026-04-20 19:07 55.60755 109.32221 39140 ft 472 kts 42°
2026-04-20 19:07 55.65459 109.40241 39135 ft 472 kts 42°
2026-04-20 19:08 55.72362 109.52661 39137 ft 473 kts 53°
2026-04-20 19:09 55.75339 109.63043 39136 ft 474 kts 73°
2026-04-20 19:09 55.76525 109.74571 39136 ft 474 kts 81°
2026-04-20 19:10 55.77467 109.86152 39128 ft 474 kts 82°
2026-04-20 19:10 55.78402 109.97765 39127 ft 474 kts 82°
2026-04-20 19:11 55.79322 110.09364 39131 ft 474 kts 82°
2026-04-20 19:11 55.80225 110.20993 39134 ft 474 kts 82°
2026-04-20 19:12 55.81108 110.32539 39133 ft 474 kts 82°
2026-04-20 19:12 55.81999 110.44170 39125 ft 474 kts 82°
2026-04-20 19:13 55.82882 110.55799 39123 ft 474 kts 82°
2026-04-20 19:13 55.83745 110.67449 39114 ft 474 kts 82°
2026-04-20 19:14 55.84591 110.79027 39111 ft 474 kts 82°
2026-04-20 19:14 55.85436 110.90652 39105 ft 473 kts 83°
2026-04-20 19:15 55.86255 111.02289 39108 ft 473 kts 83°
2026-04-20 19:15 55.87065 111.13921 39095 ft 472 kts 83°
2026-04-20 19:16 55.87874 111.25529 39094 ft 472 kts 83°
2026-04-20 19:16 55.88673 111.37123 39095 ft 471 kts 81°
2026-04-20 19:17 55.90192 111.48473 39087 ft 471 kts 76°
2026-04-20 19:17 55.91811 111.59773 39084 ft 471 kts 76°
2026-04-20 19:18 55.93410 111.71031 39083 ft 471 kts 76°
2026-04-20 19:18 55.94993 111.82372 39082 ft 471 kts 76°
2026-04-20 19:19 55.96569 111.93732 39079 ft 471 kts 76°
2026-04-20 19:19 55.98147 112.05100 39085 ft 471 kts 76°
2026-04-20 19:20 55.99704 112.16457 39084 ft 471 kts 77°
2026-04-20 19:20 56.01243 112.27837 39082 ft 470 kts 77°
2026-04-20 19:21 56.02786 112.39215 39083 ft 470 kts 77°
2026-04-20 19:21 56.04317 112.50590 39079 ft 470 kts 77°
2026-04-20 19:22 56.05830 112.61969 39072 ft 470 kts 77°
2026-04-20 19:22 56.07318 112.73298 39073 ft 470 kts 77°
2026-04-20 19:23 56.08815 112.84696 39071 ft 470 kts 77°
2026-04-20 19:23 56.10305 112.96098 39065 ft 470 kts 77°
2026-04-20 19:24 56.11773 113.07528 39068 ft 470 kts 78°
2026-04-20 19:24 56.13230 113.18950 39066 ft 470 kts 78°
2026-04-20 19:25 56.14682 113.30382 39058 ft 469 kts 78°
2026-04-20 19:25 56.16122 113.41789 39058 ft 469 kts 78°
2026-04-20 19:26 56.17305 113.51271 39058 ft 468 kts 78°
2026-04-20 19:26 56.18725 113.62695 39055 ft 468 kts 78°
2026-04-20 19:27 56.20259 113.74041 39050 ft 468 kts 77°
2026-04-20 19:27 56.21867 113.85382 39045 ft 467 kts 77°
2026-04-20 19:28 56.23435 113.96708 39041 ft 466 kts 77°
2026-04-20 19:28 56.24958 114.08042 39040 ft 466 kts 77°
2026-04-20 19:29 56.26458 114.19374 39034 ft 465 kts 77°
2026-04-20 19:29 56.27951 114.30678 39034 ft 464 kts 77°
2026-04-20 19:30 56.29493 114.41966 39027 ft 464 kts 75°
2026-04-20 19:30 56.31408 114.53009 39016 ft 464 kts 72°
2026-04-20 19:31 56.33507 114.64016 39012 ft 464 kts 72°
2026-04-20 19:31 56.35535 114.75058 39003 ft 464 kts 73°
2026-04-20 19:32 56.37471 114.86153 38996 ft 463 kts 73°
2026-04-20 19:32 56.38422 114.91697 38626 ft 461 kts 73°
2026-04-20 19:32 56.39368 114.97221 37908 ft 460 kts 74°
2026-04-20 19:32 56.40314 115.02726 37248 ft 457 kts 74°
2026-04-20 19:33 56.41261 115.08195 36586 ft 455 kts 74°
2026-04-20 19:33 56.42204 115.13629 35930 ft 452 kts 74°
2026-04-20 19:33 56.43140 115.19038 35269 ft 449 kts 75°
2026-04-20 19:33 56.44062 115.24409 34606 ft 446 kts 75°
2026-04-20 19:34 56.44976 115.29760 33939 ft 443 kts 75°
2026-04-20 19:34 56.45878 115.35068 33118 ft 440 kts 76°
2026-04-20 19:34 56.46772 115.40332 32253 ft 437 kts 76°
2026-04-20 19:34 56.47659 115.45576 31365 ft 434 kts 76°
2026-04-20 19:35 56.48536 115.50795 30469 ft 432 kts 77°
2026-04-20 19:35 56.49404 115.55972 29470 ft 429 kts 77°
2026-04-20 19:35 56.50273 115.61162 28239 ft 429 kts 76°
2026-04-20 19:35 56.51141 115.66338 27025 ft 430 kts 76°
2026-04-20 19:36 56.52007 115.71517 25902 ft 429 kts 76°
2026-04-20 19:36 56.52862 115.76647 24997 ft 422 kts 76°
2026-04-20 19:36 56.53702 115.81703 24121 ft 417 kts 75°
2026-04-20 19:36 56.54526 115.86655 23210 ft 413 kts 75°
2026-04-20 19:37 56.55348 115.91620 22258 ft 409 kts 75°
2026-04-20 19:37 56.56157 115.96545 21413 ft 405 kts 75°
2026-04-20 19:37 56.56955 116.01431 20918 ft 404 kts 75°
2026-04-20 19:37 56.57750 116.06308 20442 ft 402 kts 75°
2026-04-20 19:38 56.58539 116.11154 19971 ft 399 kts 75°
2026-04-20 19:38 56.59327 116.15978 19503 ft 397 kts 75°
2026-04-20 19:38 56.60106 116.20781 19097 ft 395 kts 75°
2026-04-20 19:38 56.60877 116.25555 18718 ft 393 kts 75°
2026-04-20 19:39 56.61644 116.30307 18348 ft 391 kts 75°
2026-04-20 19:39 56.62404 116.35031 17941 ft 389 kts 75°
2026-04-20 19:39 56.63156 116.39738 17509 ft 387 kts 75°
2026-04-20 19:39 56.63892 116.44365 17094 ft 385 kts 74°
2026-04-20 19:40 56.64633 116.49009 16738 ft 378 kts 74°
2026-04-20 19:40 56.65354 116.53512 16410 ft 365 kts 74°
2026-04-20 19:40 56.66050 116.57876 16081 ft 353 kts 74°
2026-04-20 19:40 56.66717 116.62088 15795 ft 341 kts 73°
2026-04-20 19:41 56.67357 116.66157 15529 ft 329 kts 73°
2026-04-20 19:41 56.67976 116.70109 15265 ft 322 kts 73°
2026-04-20 19:41 56.68585 116.74014 15003 ft 319 kts 73°
2026-04-20 19:41 56.69192 116.77899 14741 ft 318 kts 73°
2026-04-20 19:42 56.69797 116.81766 14484 ft 318 kts 73°
2026-04-20 19:42 56.70404 116.85625 14230 ft 318 kts 72°
2026-04-20 19:42 56.71011 116.89493 13994 ft 317 kts 72°
2026-04-20 19:42 56.71613 116.93349 13842 ft 317 kts 72°
2026-04-20 19:43 56.72216 116.97220 13672 ft 317 kts 72°
2026-04-20 19:43 56.72814 117.01077 13548 ft 316 kts 73°
2026-04-20 19:43 56.73408 117.04934 13464 ft 316 kts 73°
2026-04-20 19:43 56.74001 117.08799 13380 ft 316 kts 73°
2026-04-20 19:44 56.74586 117.12650 13282 ft 315 kts 73°
2026-04-20 19:44 56.75172 117.16500 13205 ft 315 kts 73°
2026-04-20 19:44 56.75753 117.20292 13107 ft 314 kts 73°
2026-04-20 19:44 56.76340 117.24121 13036 ft 313 kts 73°
2026-04-20 19:45 56.76923 117.27945 12949 ft 313 kts 73°
2026-04-20 19:45 56.77500 117.31766 12864 ft 312 kts 73°
2026-04-20 19:45 56.78074 117.35581 12777 ft 312 kts 73°
2026-04-20 19:45 56.78650 117.39385 12692 ft 311 kts 73°
2026-04-20 19:46 56.79224 117.43187 12606 ft 310 kts 74°
2026-04-20 19:46 56.79794 117.46980 12514 ft 310 kts 74°
2026-04-20 19:46 56.80208 117.50820 12437 ft 310 kts 88°
2026-04-20 19:46 56.80006 117.54743 12358 ft 311 kts 97°
2026-04-20 19:47 56.79699 117.58625 12270 ft 305 kts 97°
2026-04-20 19:47 56.79396 117.62358 12187 ft 291 kts 97°
2026-04-20 19:47 56.79100 117.65976 12100 ft 287 kts 97°
2026-04-20 19:47 56.78805 117.69564 11815 ft 285 kts 97°
2026-04-20 19:48 56.78512 117.73119 11464 ft 282 kts 97°
2026-04-20 19:48 56.78222 117.76647 11090 ft 280 kts 97°
2026-04-20 19:48 56.77932 117.80157 10722 ft 279 kts 97°
2026-04-20 19:48 56.77829 117.83665 10347 ft 275 kts 81°
2026-04-20 19:49 56.78280 117.86989 9922 ft 272 kts 72°
2026-04-20 19:49 56.78816 117.90292 9352 ft 271 kts 72°
2026-04-20 19:49 56.79363 117.93617 8764 ft 269 kts 72°
2026-04-20 19:49 56.79893 117.96842 8205 ft 268 kts 72°
2026-04-20 19:50 56.80423 118.00067 7638 ft 263 kts 72°
2026-04-20 19:50 56.80939 118.03226 7085 ft 257 kts 72°
2026-04-20 19:50 56.81447 118.06333 6540 ft 253 kts 72°
2026-04-20 19:50 56.81946 118.09399 5895 ft 252 kts 72°
2026-04-20 19:51 56.82447 118.12457 5056 ft 250 kts 72°
2026-04-20 19:51 56.82983 118.15455 4363 ft 246 kts 66°
2026-04-20 19:51 56.83999 118.17818 4110 ft 231 kts 34°
2026-04-20 19:51 56.85403 118.18918 3948 ft 207 kts 18°
2026-04-20 19:52 56.86715 118.19644 3889 ft 193 kts 17°
2026-04-20 19:52 56.87990 118.20298 3761 ft 186 kts 15°
2026-04-20 19:52 56.89192 118.20874 3708 ft 168 kts 14°
2026-04-20 19:52 56.90271 118.21431 3649 ft 153 kts 20°
2026-04-20 19:53 56.91085 118.22422 3636 ft 137 kts 37°
2026-04-20 19:53 56.91824 118.23512 3588 ft 133 kts 39°
2026-04-20 19:53 56.92541 118.24581 3535 ft 134 kts 38°
2026-04-20 19:53 56.93264 118.25668 3441 ft 137 kts 39°
2026-04-20 19:54 56.93977 118.26753 3302 ft 128 kts 39°
2026-04-20 19:54 56.94464 118.28081 3099 ft 135 kts 85°
2026-04-20 19:54 56.93986 118.29477 2958 ft 138 kts 154°
2026-04-20 19:54 56.93067 118.29438 2944 ft 131 kts 196°
2026-04-20 19:55 56.92294 118.28536 2684 ft 133 kts 224°
2026-04-20 19:55 56.91645 118.27392 2505 ft 122 kts 224°
2026-04-20 19:55 56.91174 118.26554 2495 ft 55 kts 224°
2026-04-20 19:55 56.90977 118.26207 2493 ft 34 kts 224°
2026-04-20 19:56 56.90900 118.26074 2489 ft 10 kts 214°
2026-04-20 19:56 56.90876 118.26038 2493 ft 2 kts
2026-04-20 19:56 56.90914 118.26099 2491 ft 12 kts 45°
2026-04-20 19:56 56.90996 118.26244 2490 ft 21 kts 44°
2026-04-20 19:57 56.91121 118.26467 2497 ft 29 kts 44°
2026-04-20 19:57 56.91286 118.26759 2499 ft 37 kts 45°
2026-04-20 19:57 56.91455 118.27065 2493 ft 27 kts 43°
2026-04-20 19:57 56.91475 118.27171 2495 ft 8 kts 131°
2026-04-20 19:58 56.91441 118.27239 2495 ft 6 kts 131°
2026-04-20 19:58 56.91425 118.27293 2496 ft 5 kts 94°
2026-04-20 19:58 56.91421 118.27350 2496 ft 4 kts 97°
2026-04-20 19:58 56.91417 118.27405 2503 ft 5 kts 103°
2026-04-20 19:59 56.91393 118.27420 2503 ft 3 kts 210°
2026-04-20 19:59 56.91396 118.27386 2502 ft 5 kts 313°
2026-04-20 19:59 56.91402 118.27375 2502 ft 0 kts 316°